This demonstration page uses our WeatherBlox Daily Observations layout. Learn more.

Left ArrowRight Arrow

Hourly Observations for September 30, 2022

Temp ( °F °C ) Dew Point ( °F °C ) Humidity (%) Winds ( mph kmh ) Pressure ( in mb ) Visibility ( mi km ) Precip ( " mm )
1:53 am 01:53 Cloudy with Light Rain 58 14.4 54 12.2 87 87 SE 7 11 29.98 1015 10 16 0.03 0.76
2:53 am 02:53 Cloudy with Light Rain 56 13.3 55 12.8 97 97 SW 7 11 29.99 1016 10 16 0.02 0.51
3:53 am 03:53 Partly Cloudy with Light Rain 55 12.8 54 12.2 96 96 W 5 7 29.98 1015 10 16 0.02 0.51
4:53 am 04:53 Mostly Cloudy with Light Rain 55 12.8 54 12.2 96 96 SSW 9 15 29.99 1016 10 16 0.01 0.13
5:53 am 05:53 Mostly Cloudy 55 12.8 54 12.2 96 96 SW 8 13 30.00 1016 10 16 0.01 0.13
6:19 am 06:19 Cloudy 55 12.8 54 12.2 96 96 SW 6 9 30.02 1017 10 16 0.00 0.00
6:53 am 06:53 Cloudy 55 12.8 54 12.2 96 96 W 5 7 30.05 1018 10 16 0.00 0.00
7:01 am 07:01 Cloudy 56 13.3 54 12.2 93 93 WSW 8 13 30.04 1017 10 16 0.00 0.00
7:20 am 07:20 Cloudy 56 13.3 54 12.2 93 93 WSW 9 15 30.05 1017 10 16 0.00 0.00
7:53 am 07:53 Cloudy 55 12.8 54 12.2 96 96 W 8 13 30.05 1018 10 16 0.00 0.00
8:53 am 08:53 Cloudy 56 13.3 54 12.2 93 93 SW 6 9 30.08 1019 10 16 0.00 0.00
9:53 am 09:53 Mostly Cloudy 57 13.9 54 12.2 89 89 W 7 11 30.08 1019 10 16 0.00 0.00
10:44 am 10:44 Cloudy 57 13.9 54 12.2 89 89 W 6 9 30.06 1018 10 16 0.01 0.13
10:53 am 10:53 Cloudy 57 13.9 54 12.2 89 89 W 5 7 30.10 1019 10 16 0.01 0.13
11:04 am 11:04 Cloudy 58 14.4 55 12.8 90 90 W 6 9 30.06 1018 10 16 0.00 0.00
11:53 am 11:53 Mostly Cloudy 58 14.4 54 12.2 87 87 NW 13 20 30.08 1019 10 16 0.00 0.00
12:01 pm 12:01 Mostly Cloudy 59 15 54 12.2 83 83 NW 15 24 30.01 1016 10 16 0.00 0.00
12:53 pm 12:53 Mostly Cloudy 61 16.1 54 12.2 78 78 WNW 9 15 30.09 1019 10 16 0.00 0.00
1:30 pm 13:30 Partly Cloudy 62 16.7 55 12.8 78 78 NW 10 17 30.02 1017 10 16 0.00 0.00
1:53 pm 13:53 Sunny 63 17.2 55 12.8 75 75 WNW 9 15 30.07 1018 10 16 0.00 0.00
2:53 pm 14:53 Sunny 64 17.8 54 12.2 70 70 W 8 13 30.07 1018 10 16 0.00 0.00
3:53 pm 15:53 Sunny 66 18.9 53 11.7 63 63 NW 8 13 30.06 1018 10 16 0.00 0.00
4:53 pm 16:53 Sunny 67 19.4 53 11.7 61 61 WNW 10 17 30.05 1018 10 16 0.00 0.00
5:53 pm 17:53 Sunny 66 18.9 53 11.7 63 63 NW 12 19 30.05 1018 10 16 0.00 0.00
6:53 pm 18:53 Sunny 64 17.8 53 11.7 67 67 W 8 13 30.05 1018 10 16 0.00 0.00
7:53 pm 19:53 Clear 62 16.7 53 11.7 72 72 SW 9 15 30.06 1018 10 16 0.00 0.00
8:53 pm 20:53 Clear 61 16.1 52 11.1 72 72 SW 6 9 30.06 1018 10 16 0.00 0.00
9:53 pm 21:53 Clear 60 15.6 50 10 69 69 E 5 7 30.07 1018 10 16 0.00 0.00
10:53 pm 22:53 Clear 58 14.4 52 11.1 81 81 Calm 30.10 1019 10 16 0.00 0.00
11:53 pm 23:53 Clear 56 13.3 50 10 80 80 ENE 7 11 30.11 1020 10 16 0.00 0.00

Powered by AerisWeather